map of BHH home
Great Circle Mapper logo
BHH - Airport
Location
City:  Bisha, Saudi Arabia
Name:Bisha Airport
ICAO / IATA:OEBH / BHH

Details
Type:Airport (Aerodrome, Airfield)
Use:Public/Civil, Military, International (customs port of entry)
Latitude:1959'03"N (19.984167)
Longitude:4237'23"E (42.623056)
Elevation:3887 ft (1185 m)
Variation:2.84E (WMM2015 magnetic declination)
0.05 annual change
Runways:1
Longest:10007 × 148 ft (3050 × 45 m), paved

Time
Time Zone:UTC+3
Local Time:

Weather
METAR:OEBH 051200Z 03009KT 9999 SCT030 39/M05 Q1012 NOSIG

Related Locations
Nearby:
Farthest:ZTA: 12346 mi / 19869 km
Tureia, PF

Find:

   beyond  
but within

Other Information
Maps:
NOTAMs:
Links:
Sources:

  
flag of Saudi Arabia   

Sectional Chart

Flight Planning
at skyvector.com

Satellite Image

Google Maps Satellite view

 

Copyright © 2004-2015 Karl L. Swartz. All rights reserved.
The Great Circle Mapper name and logo are trademarks of the Great Circle Mapper.
All other trademarks mentioned herein belong to their respective owners.
Please see credits for attibutions and further copyright information.

  Follow gcmap on Facebook Follow gcmap on Twitter Follow gcmap on Google+

hCard Microformat

Geo Microformat